Weather History for Sparta, IL

Change the Weather History Date:

Monday, January 7, 2013

  Actual Average (KBLV) Record (KBLV)
Temperature  
Mean Temperature 32 °F -  
Max Temperature 42 °F 38 °F 70 °F (2008)
Min Temperature 21 °F 20 °F -15 °F (2014)
Degree Days  
Heating Degree Days 34    
Moisture  
Dew Point 27 °F    
Average Humidity 83    
Maximum Humidity 100    
Minimum Humidity 53    
Precipitation  
Precipitation 0.00 in - - ()
Sea Level Pressure  
Sea Level Pressure 30.33 in    
Wind  
Wind Speed 4 mph (SSE)    
Max Wind Speed 13 mph    
Max Gust Speed -    
Visibility 9 miles    
Events      
Averages and records for this station are not official NWS values.
T = Trace of Precipitation, MM = Missing Value Source: NWS Daily Summary

Daily Weather History Graph

Daily Weather History Graph

Search for Another Location

Airport:

Trip Planner

Search our weather history database for the weather conditions in past years. The results will help you decide how hot, cold, wet, or windy it might be!

Date:

Astronomy

Jan. 07, 2013 Rise Set
Actual Time 7:15 AM CST 4:55 PM CST
Civil Twilight 6:46 AM CST 5:24 PM CST
Nautical Twilight 6:13 AM CST 5:57 PM CST
Astronomical Twilight 5:41 AM CST 6:29 PM CST
Moon 2:40 AM CST (1/7) 1:05 PM CST (1/7)
Length of Visible Light 10h 38m
Length of Day
9h 39m
Waning Crescent, 22% of the Moon is Illuminated
Jan 7
Waning Crescent
Jan 11
New
Jan 18
First Quarter
Jan 26
Full
Feb 3
Last Quarter

Hourly Weather History & Observations

Time (CST) Temp. Windchill Dew Point Humidity Pressure Visibility Wind Dir Wind Speed Gust Speed Precip Events Conditions
12:15 AM 24.8 °F - 24.8 °F 100% 30.40 in 7.0 mi Calm Calm - N/A   Clear
12:35 AM 23.0 °F - 23.0 °F 100% 30.40 in 7.0 mi Calm Calm - N/A   Clear
12:55 AM 23.0 °F - 23.0 °F 100% 30.40 in 7.0 mi Calm Calm - N/A   Clear
1:15 AM 23.0 °F - 23.0 °F 100% 30.41 in 7.0 mi Calm Calm - N/A   Clear
1:35 AM 23.0 °F - 23.0 °F 100% 30.41 in 7.0 mi Calm Calm - N/A   Clear
1:55 AM 23.0 °F - 23.0 °F 100% 30.41 in 7.0 mi Calm Calm - N/A   Clear
2:15 AM 23.0 °F - 23.0 °F 100% 30.41 in 7.0 mi Calm Calm - N/A   Clear
2:35 AM 21.2 °F - 21.2 °F 100% 30.41 in 7.0 mi Calm Calm - N/A   Clear
2:55 AM 23.0 °F - 23.0 °F 100% 30.41 in 7.0 mi Calm Calm - N/A   Clear
3:15 AM 23.0 °F 18.4 °F 23.0 °F 100% 30.42 in 7.0 mi SSE 3.5 mph - N/A   Clear
3:35 AM 23.0 °F 18.4 °F 23.0 °F 100% 30.42 in 7.0 mi SE 3.5 mph - N/A   Clear
3:55 AM 23.0 °F - 23.0 °F 100% 30.42 in 7.0 mi Calm Calm - N/A   Clear
4:15 AM 23.0 °F - 23.0 °F 100% 30.41 in 7.0 mi Calm Calm - N/A   Clear
4:35 AM 23.0 °F - 23.0 °F 100% 30.41 in 5.0 mi Calm Calm - N/A   Clear
4:55 AM 23.0 °F 17.0 °F 23.0 °F 100% 30.41 in 5.0 mi SE 4.6 mph - N/A   Clear
5:15 AM 24.8 °F 19.1 °F 24.8 °F 100% 30.41 in 7.0 mi SE 4.6 mph - N/A   Clear
5:35 AM 24.8 °F 20.5 °F 24.8 °F 100% 30.41 in 7.0 mi SSE 3.5 mph - N/A   Clear
5:55 AM 23.0 °F - 23.0 °F 100% 30.41 in 7.0 mi Calm Calm - N/A   Clear
6:15 AM 23.0 °F 18.4 °F 23.0 °F 100% 30.41 in 5.0 mi SE 3.5 mph - N/A   Clear
6:35 AM 23.0 °F 17.0 °F 23.0 °F 100% 30.41 in 7.0 mi SSE 4.6 mph - N/A   Clear
6:55 AM 23.0 °F 15.8 °F 23.0 °F 100% 30.41 in 7.0 mi SSE 5.8 mph - N/A   Clear
7:15 AM 24.8 °F 17.9 °F 24.8 °F 100% 30.41 in 5.0 mi SSE 5.8 mph - N/A   Clear
7:35 AM 24.8 °F 16.9 °F 24.8 °F 100% 30.42 in 5.0 mi SSE 6.9 mph - N/A   Clear
7:55 AM 24.8 °F 19.1 °F 24.8 °F 100% 30.42 in 7.0 mi SSE 4.6 mph - N/A   Clear
8:15 AM 26.6 °F 20.0 °F 26.6 °F 100% 30.42 in 7.0 mi SSE 5.8 mph - N/A   Clear
8:35 AM 26.6 °F 17.5 °F 26.6 °F 100% 30.42 in 7.0 mi SSE 9.2 mph - N/A   Clear
8:55 AM 28.4 °F 21.2 °F 28.4 °F 100% 30.43 in 7.0 mi SSE 6.9 mph - N/A   Clear
9:15 AM 30.2 °F 23.4 °F 28.4 °F 93% 30.43 in 10.0 mi South 6.9 mph - N/A   Clear
9:35 AM 30.2 °F 22.6 °F 28.4 °F 93% 30.43 in 10.0 mi South 8.1 mph - N/A   Clear
9:55 AM 32.0 °F 23.6 °F 30.2 °F 93% 30.42 in 10.0 mi South 10.4 mph - N/A   Clear
10:15 AM 33.8 °F 27.0 °F 30.2 °F 87% 30.41 in 10.0 mi South 8.1 mph - N/A   Clear
10:35 AM 35.6 °F 29.2 °F 28.4 °F 75% 30.40 in 10.0 mi SSE 8.1 mph - N/A   Clear
10:55 AM 35.6 °F 27.1 °F 28.4 °F 75% 30.38 in 10.0 mi SSE 12.7 mph - N/A   Clear
11:15 AM 37.4 °F 30.8 °F 30.2 °F 75% 30.38 in 10.0 mi SSE 9.2 mph - N/A   Clear
11:35 AM 37.4 °F 31.4 °F 28.4 °F 70% 30.36 in 10.0 mi SE 8.1 mph - N/A   Clear
11:55 AM 37.4 °F 31.4 °F 28.4 °F 70% 30.35 in 10.0 mi SSE 8.1 mph - N/A   Clear
12:15 PM 39.2 °F 33.6 °F 28.4 °F 65% 30.33 in 10.0 mi SE 8.1 mph - N/A   Clear
12:35 PM 39.2 °F 35.0 °F 28.4 °F 65% 30.32 in 10.0 mi SE 5.8 mph - N/A   Clear
12:55 PM 39.2 °F 34.2 °F 28.4 °F 65% 30.31 in 10.0 mi South 6.9 mph - N/A   Clear
1:15 PM 39.2 °F 34.2 °F 28.4 °F 65% 30.29 in 10.0 mi SSE 6.9 mph - N/A   Clear
1:35 PM 41.0 °F 36.4 °F 26.6 °F 57% 30.29 in 10.0 mi South 6.9 mph - N/A   Clear
1:55 PM 41.0 °F 35.8 °F 26.6 °F 57% 30.28 in 10.0 mi South 8.1 mph - N/A   Clear
2:15 PM 42.8 °F 38.0 °F 28.4 °F 57% 30.27 in 10.0 mi South 8.1 mph - N/A   Clear
2:35 PM 41.0 °F 36.4 °F 28.4 °F 61% 30.26 in 10.0 mi SSE 6.9 mph - N/A   Clear
2:55 PM 41.0 °F 35.2 °F 28.4 °F 61% 30.26 in 10.0 mi SSE 9.2 mph - N/A   Clear
3:15 PM 41.0 °F 36.4 °F 28.4 °F 61% 30.27 in 10.0 mi SSE 6.9 mph - N/A   Clear
3:35 PM 41.0 °F 38.0 °F 28.4 °F 61% 30.26 in 10.0 mi SSE 4.6 mph - N/A   Clear
3:55 PM 41.0 °F 37.1 °F 28.4 °F 61% 30.25 in 10.0 mi SE 5.8 mph - N/A   Clear
4:15 PM 41.0 °F 38.0 °F 24.8 °F 53% 30.25 in 10.0 mi South 4.6 mph - N/A   Clear
4:35 PM 39.2 °F 35.0 °F 26.6 °F 61% 30.25 in 10.0 mi South 5.8 mph - N/A   Clear
4:55 PM 39.2 °F 34.2 °F 26.6 °F 61% 30.25 in 10.0 mi SSE 6.9 mph - N/A   Clear
5:15 PM 37.4 °F 32.8 °F 26.6 °F 65% 30.25 in 10.0 mi SSE 5.8 mph - N/A   Clear
5:35 PM 37.4 °F 32.8 °F 24.8 °F 60% 30.24 in 10.0 mi SSE 5.8 mph - N/A   Clear
5:55 PM 37.4 °F 32.1 °F 24.8 °F 60% 30.24 in 10.0 mi SSE 6.9 mph - N/A   Clear
6:15 PM 37.4 °F 32.1 °F 26.6 °F 65% 30.23 in 10.0 mi SSE 6.9 mph - N/A   Clear
6:35 PM 35.6 °F 29.9 °F 28.4 °F 75% 30.23 in 10.0 mi SSE 6.9 mph - N/A   Clear
6:55 PM 35.6 °F 32.8 °F 28.4 °F 75% 30.24 in 10.0 mi SSE 3.5 mph - N/A   Clear
7:15 PM 35.6 °F 30.7 °F 28.4 °F 75% 30.24 in 10.0 mi SSE 5.8 mph - N/A   Clear
7:35 PM 35.6 °F 30.7 °F 28.4 °F 75% 30.23 in 10.0 mi SSE 5.8 mph - N/A   Clear
7:55 PM 33.8 °F 27.0 °F 26.6 °F 75% 30.22 in 10.0 mi SSE 8.1 mph - N/A   Clear
8:15 PM 33.8 °F 26.4 °F 28.4 °F 81% 30.22 in 10.0 mi South 9.2 mph - N/A   Clear
8:35 PM 35.6 °F 29.9 °F 28.4 °F 75% 30.22 in 10.0 mi South 6.9 mph - N/A   Clear
8:55 PM 35.6 °F 29.9 °F 30.2 °F 81% 30.22 in 10.0 mi South 6.9 mph - N/A   Clear
9:15 PM 35.6 °F 30.7 °F 30.2 °F 81% 30.21 in 10.0 mi South 5.8 mph - N/A   Clear
9:35 PM 35.6 °F 29.2 °F 30.2 °F 81% 30.22 in 10.0 mi South 8.1 mph - N/A   Clear
9:55 PM 33.8 °F 27.0 °F 30.2 °F 87% 30.21 in 10.0 mi South 8.1 mph - N/A   Clear
10:15 PM 33.8 °F 27.7 °F 30.2 °F 87% 30.21 in 10.0 mi South 6.9 mph - N/A   Clear
10:35 PM 33.8 °F 27.7 °F 30.2 °F 87% 30.21 in 10.0 mi South 6.9 mph - N/A   Clear
10:55 PM 33.8 °F 28.6 °F 30.2 °F 87% 30.21 in 10.0 mi South 5.8 mph - N/A   Clear
11:15 PM 33.8 °F 27.7 °F 30.2 °F 87% 30.20 in 10.0 mi South 6.9 mph - N/A   Clear
11:35 PM 33.8 °F 26.4 °F 30.2 °F 87% 30.19 in 10.0 mi South 9.2 mph - N/A   Clear
11:55 PM 33.8 °F 26.4 °F 30.2 °F 87% 30.18 in 10.0 mi South 9.2 mph - N/A   Clear